Location: Huesca
(42.1318°N, 0.4078°W)
Time: 00:22:46
(UTC+02:00)

Vanguard 3 - Pass Details

Date: 28 July 2024
Orbit: 508 x 3215 km, 33.4° (Epoch: 20 June)

Event Time Altitude Azimuth Distance (km) Brightness Sun altitude
Rises 22:10:20 0° 194° (SSW) 3,611 10.3 -8.1°
Reaches altitude 10° 22:13:31 10° 175° (S) 3,030 9.7 -8.6°
Maximum altitude 22:18:27 18° 135° (SE) 3,011 9.4 -9.4°
Drops below altitude 10° 22:25:08 10° 98° (E) 4,347 10.3 -10.4°
Sets 22:31:06 0° 83° (E) 5,932 11.1 -11.2°
